{"data":{"norad_id":68031,"intl_designator":"2026-040S","name":"STARLINK-36913","alt_names":[],"object_type":"PAYLOAD","status":"ACTIVE","operator":null,"country":"US","launch_date":"2026-03-01","launch_site_code":"AFWTR","launch_vehicle":null,"mission":null,"orbit_class":"UNKNOWN","rcs_meters":null,"size_class":null,"mass_kg":null,"dimensions":null,"purposes":["comms"],"wikipedia_slug":null,"has_3d_model":false,"image_url":null,"decayed_at":null,"tle_current":{"epoch":"2026-09-19T21:09:14.433120Z","epoch_age_seconds":113095,"freshness":"FRESH","line1":"1 68031U 26040S   26262.88141705  .00020116  00000+0  62346-3 0  9995","line2":"2 68031  97.2843 210.2354 0001793 103.8067 256.3375 15.33458912 31225","mean_motion":15.33458912,"eccentricity":0.0001793,"inclination_deg":97.2843,"raan_deg":210.2354,"arg_perigee_deg":103.8067,"mean_anomaly_deg":256.3375,"bstar":0.00062346,"rev_number":3122,"period_min":93.905352711531,"perigee_km":464.2747180333,"apogee_km":466.72884690069,"semimajor_km":6843.638782467,"source":"CELESTRAK","updated_at":"2026-09-20T09:00:43.744794Z"}}}